Location: *
(43.0409°N, 0.1694°E)
Time: 12:22:36
(UTC+00:00)

Cosmos 1125 Rocket - Pass Details

Date: 03 October 2023
Orbit: 755 x 779 km, 74.0° (Epoch: 02 December)

Event Time Altitude Azimuth Distance (km) Brightness Sun altitude
Exits shadow 03:00:58 45° 74° (ENE) 1,026 4.4 -32.2°
Drops below altitude 10° 03:05:08 10° 31° (NNE) 2,292 6.6 -31.5°
Sets 03:07:34 0° 26° (NNE) 3,220 7.4 -31.1°
